Find Starlink 35698

NORAD ID: 66481 Int'l Des: 2025-262 Owner: SPXS Country: US Constellation: starlink operational
LEOCIRCULAR

当前视图

正在加载3D地球...

关于 Starlink 35698

正在加载描述...

即将过境

Passes for default location (London). Set your location on the main map for personalized predictions.

高度历史

Loading altitude history...

两行轨道根数

1 66481U 25262AB 26146.25810857 .00015763 00000-0 58077-3 0 9999
2 66481 42.9992 217.7372 0001128 233.5318 126.5430 15.27598730 30773
Epoch: May 26, 2026 • Age: 8 hours

当前状态

高度 482.7 km
速度 7.63 km/s
星下点 15.97°N, 137.32°E
发射日期 Nov 15, 2025
运行时间 0.5 years
类型 internet

技术详情

分类 Payload
质量 575.00 kg
干质量 530.00 kg
总质量 575.00 kg
长度 0.30 m
直径 4.10 m
跨度 29.00 m
形状 Box + pan
制造商 SPXS
平台类型 Starlink V2MO
阶段状态 In Orbit
所有者/国家 SPXS/US

Most Searched